Location: G�ndlingen
(48.0142°N, 7.6396°E)
Time: 07:23:27
(UTC+00:00)

Cosmos 1633 - Pass Details

Date: 05 July 2020
Orbit: 462 x 482 km, 82.5° (Epoch: 04 August)

Event Time Altitude Azimuth Distance (km) Brightness Sun altitude
Exits shadow 23:00:57 26° 102° (ESE) 982 3.9 -18.9°
Maximum altitude 23:01:20 27° 91° (E) 968 4.0 -18.9°
Drops below altitude 10° 23:04:25 10° 32° (NNE) 1,664 6.0 -19.0°
Sets 23:06:44 0° 20° (NNE) 2,546 7.3 -19.1°
